Regional Weather Roundup
Issued by NWS

Home | Current Version | Previous Version | Graphics & Text | Print | Product List | Glossary On
Versions: 1 2 3 4 5 6 7 8 9 10 11 12 13 14 15 16 17 18 19 20 21 22 23 24 25 26 27 28 29 30 31 32 33 34 35 36 37 38 39 40 41 42 43 44 45 46 47 48 49 50
000
ASUS43 KMKX 240920
RWRWI

WISCONSIN REGIONAL WEATHER ROUNDUP
NATIONAL WEATHER SERVICE MILWAUKEE/SULLIVAN WI
300 AM CST WED JAN 24 2018

NOTE: "FAIR" INDICATES FEW OR NO CLOUDS BELOW 12,000 FEET WITH NO
SIGNIFICANT WEATHER AND/OR OBSTRUCTIONS TO VISIBILITY.

WIZ001-002-006>008-014>016-023>028-241000-
NORTHWEST WISCONSIN

CITY           SKY/WX    TMP DP  RH WIND       PRES   REMARKS
SUPERIOR ARPT  MOCLDY     5   1  85 SW3       30.20F
ASHLAND        MOCLDY     8   5  87 CALM      30.21R
HAYWARD        FAIR       1  -4  79 CALM      30.18R
SIREN          FAIR       0  -4  82 CALM      30.20R
CUMBERLAND     FAIR       1  -4  78 CALM      30.18R
RICE LAKE      FAIR       0  -4  86 CALM      30.21R
CHETEK         FAIR       3   1  88 CALM      30.20R
LADYSMITH      CLOUDY    10   8  89 CALM      30.19R
EAU CLAIRE     MOCLDY    11   9  92 SW3       30.20R
MENOMONIE      FAIR       8   6  91 CALM      30.21S
NEW RICHMOND   FAIR       2  -2  83 CALM      30.20R
OSCEOLA        FAIR       3   0  87 CALM      30.24R
$$

WIZ003>005-009-010-017-018-241000-
NORTH CENTRAL WISCONSIN

CITY           SKY/WX    TMP DP  RH WIND       PRES   REMARKS
MANITOWISH WTR CLOUDY     3   1  94 CALM      30.13S
ARBOR VITAE    CLOUDY     6   2  87 CALM      30.13R
WOODRUFF       CLOUDY     6   2  87 CALM      30.13R
RHINELANDER    CLOUDY     5   3  91 W5        30.13R WCI  -4
EAGLE RIVER    CLOUDY     4   0  85 CALM      30.12R
LAND O LAKES   CLOUDY     8   6  90 NE3       30.13F
PHILLIPS       CLOUDY     4   1  90 CALM      30.14S
TOMAHAWK       FAIR       4   1  88 CALM      30.15S
MEDFORD        FAIR       7   4  88 CALM      30.14F
MERRILL        FAIR       9   8  94 CALM      30.17S
$$

WIZ029-030-035-036-043>047-241000-
CENTRAL WISCONSIN

CITY           SKY/WX    TMP DP  RH WIND       PRES   REMARKS
WAUSAU         FAIR      14  11  87 NE5       30.15R WCI   6
MOSINEE        FAIR      14  12  92 CALM      30.17R
MARSHFIELD     FAIR      12   9  87 N3        30.15S
STEVENS POINT  FAIR      11  11  99 CALM      30.18S
WAUPACA        FAIR      19  13  79 N3        30.21R
WAUTOMA        CLOUDY    21  16  79 N6        30.21R WCI  14
WISC RAPIDS    FAIR      14  10  84 CALM      30.20R
CAMP DOUGLAS   NOT AVBL
$$

WIZ011>013-019>022-031-037>040-048>050-241000-
NORTHEAST WISCONSIN

CITY           SKY/WX    TMP DP  RH WIND       PRES   REMARKS
ANTIGO         FAIR       2   0  89 CALM      30.15R
SHAWANO        FAIR      14  10  83 CALM      30.20S
OCONTO         FAIR      12   8  82 N5        30.20F WCI   4
STURGEON BAY   FAIR      12   9  87 N7        30.20S WCI   1
GREEN BAY      FAIR      16  11  80 N7        30.20S WCI   6
MANITOWOC      FAIR      17  12  80 NW12      30.20R WCI   4
APPLETON       FAIR      18  10  73 N6        30.18S WCI   9
CLINTONVILLE   FAIR      14  10  85 CALM      30.20S
OSHKOSH        FAIR      19  13  77 N6        30.19R WCI  11
$$

WIZ032>034-041-042-053>061-241000-
SOUTHWEST WISCONSIN

CITY           SKY/WX    TMP DP  RH WIND       PRES   REMARKS
LA CROSSE      FAIR      18  15  88 CALM      30.23R
SPARTA         CLOUDY    21  18  91 CALM      30.22S
VIROQUA        CLOUDY    21  19  91 CALM      30.18S
BOSCOBEL       CLOUDY    25  19  78 N3        30.23R
PRAIRIE DU CHI CLOUDY    24  17  74 NW6       30.24R WCI  17
PLATTEVILLE    CLOUDY    24  23  93 N5        30.20R WCI  19
$$

WIZ056-057-062-063-064-067-068-241000-
SOUTH CENTRAL WISCONSIN

CITY           SKY/WX    TMP DP  RH WIND       PRES   REMARKS
REEDSBURG      CLOUDY    22  20  89 CALM      30.20R
BARABOO/DELLS  CLOUDY    23  19  83 CALM      30.19S
LONE ROCK      CLOUDY    25  20  81 N5        30.22R WCI  19
MINERAL POINT  CLOUDY    27  27 100 N7        30.18R WCI  19
MADISON        CLOUDY    23  19  85 N7        30.19S WCI  15
MIDDLETON      CLOUDY    25  20  80 N5        30.19F WCI  20
WATERTOWN      CLOUDY    25  22  86 N3        30.17F
MONROE         CLOUDY    25  21  86 NW3       30.17S
JANESVILLE     CLOUDY    28  23  80 CALM      30.18S
$$

WIZ051-052-058>065-066-070>072-241000-
SOUTHEAST WISCONSIN

CITY           SKY/WX    TMP DP  RH WIND       PRES   REMARKS
MILWAUKEE      CLOUDY    28  23  81 NW8       30.18R WCI  20
WAUKESHA       CLOUDY    25  21  86 W6        30.18S WCI  18
MILWAUKEE/TIMM CLOUDY    27  19  74 N7        30.19R WCI  19
RACINE         CLOUDY    26  23  88 W5        30.19R WCI  20
BURLINGTON     MOCLDY    25  21  85 NW7       30.18S WCI  17
KENOSHA        CLOUDY    26  21  81 W6        30.18R WCI  19
FOND DU LAC    CLOUDY    22  12  65 N10       30.19R WCI  11
SHEBOYGAN      FAIR      19  14  81 N6        30.19R WCI  11
WEST BEND      CLOUDY    23  19  86 N8        30.18R WCI  14
JUNEAU         CLOUDY    23  18  81 N7        30.19S WCI  15
$$

LSZ147-162-241000-
LAKE SUPERIOR

STATION/POSITION TIME  TEMP    WIND        PRES    WAVE
                       AIR SEA DIR/SP/G            HT/PER
                 (UTC) (F)     (DEG/KT/KT) (MB)    (FT/S)
DEVILS ISLAND    0900   21      90/  8/  9 1024.0S
SAXON HARBOR     0830   14     180/  4/  5 1022.4S
$$

LMZ867-665-643>646-241000-
LAKE MICHIGAN

STATION/POSITION TIME  TEMP    WIND        PRES    WAVE
                       AIR SEA DIR/SP/G            HT/PER
                 (UTC) (F)     (DEG/KT/KT) (MB)    (FT/S)
NORTHPORT PIER   0903   16      CALM  / 13 1022.0
KEWAUNEE LAKESHO 0900   16     320/  7/ 11 1021.6
SHEBOYGAN LAKESH 0900   21     330/  9/ 11 1023.6R
PORT WASHINGTON  0830   25     350/  6/  8 1023.4R
MILWAUKEE LAKESH 0900   27     340/ 12/ 15   N/A
KENOSHA   LAKESH 0900   26     290/  9/ 12 1022.4
$$

TC  - TEMPERATURE IN CELSIUS
VSB - VISIBILITY IN STATUTE MILES
WCI - WIND CHILL INDEX
HX  - HEAT INDEX




USA.gov is the U.S. government's official web portal to all federal, state and local government web resources and services.